www.pogodaiklimat.ru

Погода и климат >> Архив погоды >> Индия >> Maharana Pratap Airport


ПОГОДА в Maharana Pratap Airport

  • Прогноз погоды в Maharana Pratap Airport
  • Монитор погоды в Maharana Pratap Airport
  • Климат города

АРХИВ ПОГОДЫ в Maharana Pratap Airport

Время (UTC), дата Ветер
(напр.,м/с)
 
Видим.   Явления Облачность Т
(С)
Тd
(С)
f
(%)
Тe
(С)
Тes
(С)
Комфортность P
(гПа)
Po
(гПа)
Тmin
(С)
Tmax
(С)
R
(мм)
R24
(мм)
S
(см)
18 10.10 СЗ 1 4000 м мгла 5/3 900 м
[Sc Ac trans]
+23.8 +17.3 67 +28 +28 душно 1009.6 952.3
21 10.10 штиль 0 4000 м мгла 5/3 900 м
[Sc Ac trans]
+22.8 +17.2 71 +28 +28 душно 1009.2 951.8
00 11.10 штиль 0 4000 м мгла 3/3 900 м
[Sc]
+21.2 +16.4 74 +25 +25 комфорт 1009.1 951.5
03 11.10 штиль 0 4000 м мгла 4/0
[Ac trans]
+22.4 +16.7 70 +27 +30 душно 1010.2 952.7 +20.1 +35.4
06 11.10 СВ 2 4000 м ясно +32.8 +12.4 29 +33 +48 жарко 1009.0 953.3
12 11.10 В 1 4000 м 5/5 900 м
[Sc]
+32.4 +14.9 35 +34 +35 очень
жарко
1005.7 950.2 +34.5
18 11.10 штиль 0 4000 м мгла ясно +23.4 +16.8 66 +28 +28 душно 1010.7 953.3
21 11.10 штиль 0 4000 м мгла ясно +22.2 +17.2 73 +27 +27 душно 1010.4 952.9
00 12.10 штиль 0 4000 м мгла 3/0
[]
+21.6 +15.1 67 +25 +25 комфорт 1010.9 953.0
03 12.10 С 2 4000 м мгла ясно +22.4 +13.8 58 +26 +29 жарко 1013.0 955.3 +20.0 +34.5
06 12.10 ЮВ 2 4000 м ясно +31.2 +15.3 38 +34 +47 душно 1011.3 955.2
12 12.10 штиль 0 4000 м 3/3 900 м
[Sc]
+32.0 +16.8 40 +35 +36 очень
душно
1007.3 951.6 +33.7
18 12.10 штиль 0 4000 м мгла ясно +22.8 +17.2 71 +28 +28 душно 1011.8 954.2
21 12.10 штиль 0 4000 м мгла ясно +21.6 +16.9 75 +26 +26 душно 1011.6 953.8
00 13.10 штиль 0 4000 м мгла ясно +19.2 +16.6 85 +21 +21 комфорт 1012.6 954.4
03 13.10 штиль 0 4000 м мгла ясно +22.4 +16.4 69 +27 +31 душно 1014.6 956.9 +18.4 +33.7
06 13.10 Ю 2 4000 м мгла ясно +31.2 +13.2 33 +32 +47 жарко 1012.5 956.4
12 13.10 ЮВ 2 4000 м 3/3 900 м
[Sc]
+31.6 +13.8 34 +33 +33 жарко 1009.0 953.1 +33.4
18 13.10 штиль 0 4000 м ясно +24.4 +17.8 67 +29 +29 душно 1012.0 954.8
21 13.10 штиль 0 4000 м ясно +22.6 +16.6 69 +27 +27 душно 1011.5 953.9
00 14.10 штиль 0 4000 м ясно +20.8 +17.0 79 +24 +24 комфорт 1012.5 954.4
03 14.10 штиль 0 4000 м ясно +22.4 +17.1 72 +27 +31 душно 1013.8 956.1 +19.6 +33.4
06 14.10 Ю 3 4000 м ясно +32.0 +12.6 31 +33 +44 жарко 1012.0 956.2
12 14.10 ЮЗ 2 4000 м ясно +32.4 +12.7 30 +33 +34 жарко 1008.3 952.7 +34.4
18 14.10 штиль 0 4000 м мгла 3/3 900 м
[Sc]
+22.0 +15.6 67 +26 +26 душно 1012.5 954.7
21 14.10 штиль 0 2000 м мгла ясно +20.8 +15.7 73 +24 +24 комфорт 1011.5 993.6
00 15.10 З 1 4000 м мгла 3/0
[Ac trans]
+19.0 +15.1 78 +21 +21 комфорт 1012.4 981.2
03 15.10 штиль 0 4000 м мгла ясно +23.4 +16.8 66 +28 +32 душно 1013.4 955.9 +17.4 +34.4
06 15.10 З 3 4000 м ясно +33.2 +11.6 27 +33 +44 жарко 1012.0 956.4
12 15.10 ЮЗ 1 4000 м 3/0
[Ac trans]
+34.0 +9.5 22 +33 +33 жарко 1009.0 953.5 +35.0
18 15.10 штиль 0 4000 м ясно +21.4 +14.2 64 +24 +24 комфорт 1013.5 955.6
21 15.10 штиль 0 4000 м мгла ясно +20.0 +14.4 70 +22 +22 комфорт 1012.8 954.6
00 16.10 штиль 0 4000 м мгла ясно +17.6 +13.9 79 +18 +18 1013.1 954.5
03 16.10 штиль 0 4000 м ясно +22.4 +14.2 60 +26 +29 жарко 1014.2 956.5 +16.5 +35.0
06 16.10 ЮЗ 2 4000 м ясно +31.8 +10.9 28 +32 +45 жарко 1012.2 956.1
12 16.10 З 3 4000 м 3/0
[Ac trans]
+32.0 +11.2 28 +32 +32 жарко 1009.4 953.6 +34.6
18 16.10 штиль 0 4000 м ясно +24.2 +12.5 48 +26 +26 жарко 1012.7 955.4
21 16.10 штиль 0 4000 м мгла ясно +21.0 +13.3 61 +23 +23 комфорт 1013.0 954.9
00 17.10 штиль 0 4000 м мгла 4/0
[Ac trans]
+20.4 +15.6 74 +23 +23 комфорт 1012.1 954.0
03 17.10 штиль 0 4000 м мгла 4/0
[Ac trans]
+25.6 +15.1 52 +28 +31 жарко 1012.7 955.6 +19.2 +34.6
06 17.10 З 2 4000 м ясно +33.0 +10.8 26 +33 +46 жарко 1010.9 955.2
12 17.10 З 2 4000 м 4/4 900 м
[Cu hum]
+33.0 +9.3 23 +32 +32 жарко 1007.6 952.0 +35.0

 

Местоположение метеостанции Maharana Pratap Airport (Rajasthan, Индия): широта 24.62 долгота 73.88 высота над уровнем моря 514 м.

В архиве по умолчанию представлена погода в Maharana Pratap Airport за последнюю неделю. Архивные данные за месяц целиком и за предыдущие месяцы, начиная с января 2011 года, Вы можете получить, выбрав интересующий диапазон дат из раскрывающегося списка и нажав кнопку "Ввод!".


*Определитесь, кто Вы:
робот инопланетянин человек

Внимание! Время в таблицах - всемирное. Для получения местного времени необходимо прибавить поправку, которая в Maharana Pratap Airport равна 5.5 ч.

Смотрите также архив погоды в соседних городах и на ближайших метеорологических станциях:

Погода в Chittorgarh (Rajasthan, Индия) (81 км)
Погода в Bhilwara (Rajasthan, Индия) (111 км)
Погода в Mount Abu (Rajasthan, Индия) (117 км)
Погода в Deesa (Gujarat, Индия) (176 км)
Погода в Ratlam (Madhya Pradesh, Индия) (187 км)
Погода в Gandhinagar (Gujarat, Индия) (194 км)
Погода в Jodhpur (Rajasthan, Индия) (206 км)
Погода в Kota (Rajasthan, Индия) (207 км)
Погода в Ahmedabad (Gujarat, Индия) (214 км)
Погода в Ajmer (Rajasthan, Индия) (217 км)

Пояснения к столбцам:

Ветер - указаны скорость ветра в м/с - средняя за 10 мин, порывы в срок и между сроками (в фигурных скобках) и направление, откуда дует ветер: С - северный, СВ - северо-восточный, В - восточный, ЮВ - юго-восточный, Ю - южный, ЮЗ - юго-западный, З - западный, СЗ - северо-западный.
Видимость - горизонтальная дальность видимости в метрах или километрах. При видимости от 1 до 10 км при отсутствии осадков обычно наблюдается дымка, при ухудшении видимости до 1 км и менее - туман. В сухую погоду видимость может ухудшаться дымом, пылью или мглою.
Явления - указаны атмосферные явления, наблюдавшиеся в срок или в последний час перед сроком; фигурными скобками обозначены явления, наблюдавшиеся между сроками (за 1-3 часа до срока); квадратными скобками обозначены град или гололедные отложения с указанием их диаметра в мм.
Облачность - указаны через наклонную черту общая и нижняя облачность в баллах и высота нижней границы облаков в метрах; квадратными скобками обозначены формы облаков: Ci - перистые, Cs - перисто-слоистые, Cc - перисто-кучевые, Ac - высококучевые, As - высокослоистые, Sc - слоисто-кучевые, Ns - слоисто-дождевые, Cu - кучевые, Cb - кучево-дождевые. Подробнее классификацию облаков см. в Атласе облаков (PDF).
T - Температура воздуха - температура, измеренная на высоте 2 м над землей.
Td - Температура точки росы - температура, при понижении до которой содержащийся в воздухе водяной пар достигнет насыщения.
f - Относительная влажность воздуха - влажноcть воздуха, измеренная на высоте 2 м над землей.
Te - Эффективная температура - температура, которую ощущает одетый по сезону человек в тени. Характеристика душности погоды. При расчете учитывается влияние влажности воздуха и скорости ветра на теплоощущения человека.
Tes - Эффективная температура на солнце - температура, которую ощущает человек, с поправкой на солнечный нагрев. Характеристика знойности погоды. Зависит от высоты солнца над горизонтом, облачности и скорости ветра. Ночью, в пасмурную погоду, а также при ветре 12 м/с и более поправка равна нулю.
P - Атмосферное давление - приведенное к уровню моря атмосферное давление.
Po - Атмосферное давление - измеренное на уровне метеостанции атмосферное давление.
Tmin - Минимальная температура - минимум температуры воздуха на высоте 2 м над землей.
Tmax - Максимальная температура - максимум температуры воздуха на высоте 2 м над землей.
R - Количество осадков - Количество выпавших осадков за период времени, мм. При наведении курсора мыши на число - период времени, за который выпало указанное количество осадков.
R24 - Количество осадков - Количество выпавших осадков за 24 часа, мм.
S - Снежный покров - Высота снежного покрова, см. При наведении курсора мыши на число - состояние снежного покрова и степень покрытия местности в баллах.